Weather History for El Centro, CA

Change the Weather History Date:

Saturday, July 20, 2013

  Actual Average Record
Temperature  
Mean Temperature 90 °F -  
Max Temperature 98 °F 104 °F 120 °F (1999)
Min Temperature 82 °F 78 °F 75 °F (2014)
Cooling Degree Days 24    
Growing Degree Days 40 (Base 50)    
Moisture  
Dew Point 71 °F    
Average Humidity 56    
Maximum Humidity 79    
Minimum Humidity 39    
Precipitation  
Precipitation 0.00 in - - ()
Sea Level Pressure  
Sea Level Pressure 29.78 in    
Wind  
Wind Speed 8 mph (ESE)    
Max Wind Speed 18 mph    
Max Gust Speed 23 mph    
Visibility 10 miles    
Events      
Averages and records for this station are not official NWS values.
T = Trace of Precipitation, MM = Missing Value Source: NWS Daily Summary

Daily Weather History Graph

Daily Weather History Graph

Search for Another Location

Airport:

Trip Planner

Search our weather history database for the weather conditions in past years. The results will help you decide how hot, cold, wet, or windy it might be!

Date:

Astronomy

Jul. 20, 2013 Rise Set
Actual Time 5:48 AM PDT 7:49 PM PDT
Civil Twilight 5:20 AM PDT 8:16 PM PDT
Nautical Twilight 4:47 AM PDT 8:50 PM PDT
Astronomical Twilight 4:11 AM PDT 9:26 PM PDT
Moon 5:57 PM PDT (7/20) 3:32 AM PDT (7/20)
Length of Visible Light 14h 55m
Length of Day
14h 00m
Waxing Gibbous, 94% of the Moon is Illuminated
Jul 20
Waxing Gibbous
Jul 22
Full
Jul 29
Last Quarter
Aug 6
New
Aug 14
First Quarter

Hourly Weather History & Observations

Time (PDT) Temp. Heat Index Dew Point Humidity Pressure Visibility Wind Dir Wind Speed Gust Speed Precip Events Conditions
12:56 AM 86.0 °F 90.7 °F 70.0 °F 59% 29.78 in 10.0 mi ESE 9.2 mph - N/A   Unknown
1:56 AM 82.9 °F 87.0 °F 70.0 °F 65% 29.78 in 10.0 mi East 6.9 mph - N/A   Unknown
2:56 AM 82.0 °F 87.4 °F 73.0 °F 74% 29.78 in 10.0 mi NE 6.9 mph - N/A   Unknown
3:56 AM 82.0 °F 88.6 °F 75.0 °F 79% 29.78 in 10.0 mi East 8.1 mph - N/A   Unknown
4:56 AM 82.9 °F 90.2 °F 75.0 °F 77% 29.80 in 10.0 mi East 15.0 mph - N/A   Unknown
5:56 AM 82.9 °F 90.2 °F 75.0 °F 77% 29.82 in 10.0 mi ESE 15.0 mph - N/A   Overcast
6:56 AM 84.0 °F 90.2 °F 73.0 °F 69% 29.85 in 10.0 mi SE 17.3 mph 23.0 mph N/A   Overcast
7:56 AM 84.9 °F 91.4 °F 73.0 °F 67% 29.85 in 10.0 mi SSE 18.4 mph 23.0 mph N/A   Mostly Cloudy
8:56 AM 87.1 °F 95.4 °F 73.9 °F 65% 29.84 in 10.0 mi SSE 8.1 mph - N/A   Mostly Cloudy
9:56 AM 90.0 °F 97.9 °F 73.0 °F 57% 29.83 in 10.0 mi SSW 4.6 mph - N/A   Mostly Cloudy
10:56 AM 91.0 °F 97.6 °F 71.1 °F 52% 29.84 in 10.0 mi Calm Calm - N/A   Mostly Cloudy
11:56 AM 91.9 °F 98.4 °F 71.1 °F 50% 29.84 in 10.0 mi Calm Calm - N/A   Mostly Cloudy
12:56 PM 93.0 °F 101.9 °F 73.0 °F 52% 29.82 in 10.0 mi East 9.2 mph - N/A   Mostly Cloudy
1:56 PM 93.9 °F 102.1 °F 72.0 °F 49% 29.81 in 10.0 mi Calm Calm - N/A   Mostly Cloudy
2:56 PM 96.1 °F 102.9 °F 70.0 °F 43% 29.78 in 10.0 mi Variable 4.6 mph - N/A   Mostly Cloudy
3:56 PM 96.1 °F 101.6 °F 69.1 °F 41% 29.75 in 10.0 mi Variable 3.5 mph - N/A   Unknown
4:56 PM 97.0 °F 102.8 °F 69.1 °F 40% 29.73 in 10.0 mi Variable 3.5 mph - N/A   Unknown
5:56 PM 97.0 °F 102.2 °F 68.0 °F 39% 29.72 in 10.0 mi South 6.9 mph - N/A   Unknown
6:56 PM 96.1 °F 101.6 °F 69.1 °F 41% 29.71 in 10.0 mi Calm Calm - N/A   Unknown
7:56 PM 93.9 °F 100.3 °F 70.0 °F 46% 29.71 in 10.0 mi ESE 5.8 mph - N/A   Unknown
8:56 PM 91.9 °F 96.9 °F 69.1 °F 47% 29.71 in 10.0 mi SE 3.5 mph - N/A   Unknown
9:56 PM 89.1 °F 95.0 °F 71.1 °F 55% 29.73 in 10.0 mi East 9.2 mph - N/A   Unknown
10:56 PM 89.1 °F 94.1 °F 70.0 °F 53% 29.74 in 10.0 mi SE 9.2 mph - N/A   Unknown
11:56 PM 88.0 °F 92.1 °F 69.1 °F 53% 29.75 in 10.0 mi SE 10.4 mph - N/A   Unknown